Location: Morrison Observatory
(41.7012°N, 86.2315°W)
Time: 23:18:35
(UTC-04:00)

Daily predictions for brighter satellites

Satellite Brightness Start Highest point End
(mag) Time Altitude Azimuth Time Altitude Azimuth Time Altitude Azimuth
CZ-4 DEB 3.2 21:32:26 10° S 21:35:37 64° WSW 21:38:51 10° NNW
H-2A R/B 2.4 21:32:52 10° SSE 21:36:56 50° ENE 21:41:08 10° N
Meteor 2-4 Rocket 4.2 21:32:12 10° SSE 21:37:42 44° E 21:43:17 10° NNE
Cosmos 1331 Rocket 4.4 21:33:11 10° N 21:38:17 50° ENE 21:43:18 10° SE
CZ-2C R/B 0.4 21:37:10 10° SSE 21:39:29 69° ENE 21:41:48 10° N
Cosmos 2333 Rocket 2.7 21:36:01 10° SSW 21:41:38 68° WNW 21:47:17 10° NNE
Resurs 01 Rocket 4.4 21:39:26 10° SW 21:42:15 16° W 21:45:06 10° NW
SPOT 5 3.7 21:39:02 10° SE 21:42:53 29° ENE 21:46:38 10° N
Cosmos 2297 3.8 21:39:41 10° NNW 21:45:22 66° ENE 21:51:03 10° SSE
Cosmos 2098 Rocket 3.6 21:47:03 10° NNW 21:50:11 47° W 21:53:55 10° S
H-2A R/B 3.8 21:47:54 10° S 21:51:43 49° W 21:55:35 10° NNW
CZ-4 SHROUD 4.3 21:49:30 10° SE 21:52:18 30° ENE 21:55:08 10° N
APEX 4.4 21:49:16 10° N 21:52:51 35° ENE 21:57:11 11° SE
Lacrosse 5 3.6 21:50:16 10° W 21:54:56 36° NNW 21:59:38 10° NNE
USA 186 3.6 21:54:33 10° SSW 21:57:08 26° W 21:59:35 10° NW
ATLAS CENTAUR R/B 2.2 21:52:24 10° SW 21:57:20 70° NW 22:02:24 10° NNE
Cosmos 158 Rocket 4.2 21:52:51 10° SSW 21:57:53 74° WNW 22:03:06 10° NNE
SeaSat 1 2.7 21:53:16 10° SE 21:58:06 58° ENE 22:02:58 10° NNW
CZ-4B R/B 4.5 21:55:25 10° NE 21:59:43 28° E 22:04:06 10° SSE
Cosmos 2228 3.3 21:59:31 10° N 22:03:51 51° E 22:07:57 11° SSE
Cosmos 2251 Rocket 3.7 21:59:06 10° SSW 22:04:24 80° WNW 22:09:48 10° NNE
Cosmos 1892 Rocket 3.7 22:01:27 10° S 22:05:53 81° W 22:10:22 10° N
Cosmos 1025 Rocket 3.9 22:01:36 10° SSW 22:05:55 54° W 22:10:14 10° N
BREEZE-M DEB (TANK) 1.8 22:09:09 10° WNW 22:11:54 65° SW 22:13:12 20° SE
Tsikada Rocket 4.4 22:08:02 10° SSE 22:14:05 46° E 22:20:09 10° NNE
Atlas Centaur 2 4.0 22:08:42 10° SSW 22:14:48 25° SSE 22:20:37 12° ESE
ALOS 4.1 22:10:57 10° SSW 22:15:01 30° W 22:19:07 10° NW
YAOGAN 6 3.8 22:13:00 16° ESE 22:15:17 29° ENE 22:18:34 10° N
Nimbus 7 Rocket 4.4 22:09:42 10° NNE 22:15:42 78° ESE 22:21:37 10° SSW
Terra 3.9 22:13:52 10° E 22:15:54 13° ENE 22:17:58 10° NE
COSMOS 2455 3.8 22:13:52 10° SSE 22:18:45 27° ESE 22:23:40 10° NE
Cosmos 2237 Rocket 3.9 22:15:43 10° SW 22:20:52 37° WNW 22:26:05 10° N
ATLAS 3B R/B 4.2 22:18:09 14° SE 22:21:09 18° ESE 22:25:56 10° ENE
Meteor 1-15 Rocket 4.2 22:15:43 10° N 22:21:19 83° E 22:26:46 11° S
Envisat 3.0 22:16:48 10° SSE 22:21:48 86° ENE 22:26:55 10° NNW
MetOp-A 4.3 22:17:22 14° SSE 22:21:53 59° ENE 22:27:09 10° N
ERS-1 Rocket 3.9 22:18:42 10° S 22:23:31 47° W 22:28:21 10° NNW
Cosmos 2285 Rocket 4.1 22:17:21 10° NNW 22:23:42 81° WSW 22:29:39 12° SSE
Cosmos 1939 Rocket 3.2 22:19:44 10° S 22:23:52 67° W 22:28:02 10° NNW
GRACE-1 4.0 22:23:48 10° N 22:26:39 56° E 22:28:09 24° SSE
GRACE-2 4.0 22:24:15 10° N 22:27:06 56° E 22:28:36 24° SSE
Cosmos 2278 Rocket 3.9 22:22:48 10° NW 22:27:37 29° WSW 22:32:25 10° SSW
PSLV R/B 3.3 22:30:19 18° S 22:32:28 70° WSW 22:35:34 10° NNW
USA 234 3.3 22:27:51 17° SE 22:33:10 88° NE 22:39:47 10° NW
Cosmos 1464 Rocket 4.4 22:32:25 10° NNW 22:38:28 64° W 22:44:32 10° S
Cosmos 2058 Rocket 4.3 22:35:51 10° NNW 22:39:56 39° W 22:43:59 10° SSW
Lacrosse 5 rocket 2.9 22:37:05 10° WSW 22:40:44 37° NW 22:44:35 10° NNE
Cosmos 2369 Rocket 3.5 22:38:02 10° N 22:42:54 28° NE 22:46:13 17° ESE
Cosmos 1666 3.5 22:42:22 10° NNW 22:46:10 49° W 22:49:17 14° SSW
SL-16 R/B 3.2 22:41:34 10° SW 22:47:02 49° WNW 22:52:32 10° NNE
Abrixas rocket 2.2 22:44:15 10° WNW 22:47:40 73° SSW 22:48:52 37° SE
Aureole 2 Rocket 3.3 22:45:23 10° SSW 22:49:21 58° WNW 22:52:58 10° NNE
Cosmos 1602 Rocket 3.7 22:45:11 10° SSW 22:49:40 75° W 22:54:10 10° N
ARGOS 3.3 22:48:12 24° SE 22:51:29 63° ENE 22:56:51 10° N
H-2A R/B 3.0 22:50:29 21° ESE 22:52:41 30° ENE 22:57:02 10° N
NOAA 11 4.3 22:52:09 25° SE 22:55:15 62° ENE 23:00:37 10° N
Cosmos 1825 Rocket 4.2 22:54:02 30° SE 22:55:29 39° E 22:59:38 10° NNE
Cosmos 2034 Rocket 4.4 22:49:24 10° NNW 22:55:42 64° W 23:01:30 12° S
Cosmos 1816 Rocket 4.5 22:50:06 14° S 22:55:43 76° E 23:02:04 10° N
UNK 4.4 22:51:44 10° N 22:57:05 73° WNW 23:02:41 10° SSW
Cosmos 1634 Rocket 4.2 22:52:58 10° N 22:58:59 53° ENE 23:02:13 27° SE
Cosmos 1238 4.1 22:58:10 37° S 22:59:20 83° E 23:02:23 10° N
Cosmos 1812 Rocket 3.5 22:55:29 10° N 22:59:52 83° W 23:02:13 27° S
SPOT 1/Viking Rocket 3.5 22:57:45 24° SSE 23:00:57 86° WSW 23:06:09 10° NNW
Cosmos 1992 Rocket 4.4 22:56:06 10° N 23:01:12 50° ENE 23:03:30 29° SE
Cosmos 1461 2.9 22:57:45 10° NW 23:02:04 76° WSW 23:03:39 36° SSE
USA 245 4.4 22:57:48 21° SSE 23:02:09 85° WSW 23:07:40 10° NNW
NAVSTAR 52 R/B(PAM-D 4.4 22:58:55 10° W 23:02:51 50° S 23:02:58 49° S
Cosmos 1346 Rocket 3.5 23:10:07 34° E 23:10:13 34° E 23:13:47 10° NNE
Cosmos 1066 Rocket 4.3 23:11:09 29° SSE 23:13:58 61° E 23:19:41 10° NNE
CZ-4 R/B 3.9 23:09:56 10° NNE 23:14:56 84° WNW 23:18:29 20° SSW
DEBRIS 3.7 23:11:55 10° WNW 23:15:00 23° SW 23:15:03 23° SW
Cosmos 1515 3.6 23:13:48 38° S 23:15:13 87° W 23:19:07 10° N
Cosmos 1603 3.9 23:10:00 10° SSW 23:15:36 72° WNW 23:21:13 10° NNE
Cosmos 1190 Rocket 4.4 23:14:26 35° SE 23:15:52 43° ESE 23:20:53 10° NNE
Geosat 3.9 23:10:50 10° NNE 23:15:54 80° ESE 23:19:56 16° SSW
SPOT 5 4.5 23:17:32 11° SSW 23:20:56 25° W 23:24:34 10° NW
Cosmos 2279 Rocket 4.3 23:19:54 10° N 23:25:59 50° ENE 23:28:18 34° SE
Spot 4 4.2 23:27:26 39° ESE 23:28:40 49° ENE 23:33:16 10° N
Cosmos 1842 4.5 23:32:29 28° ENE 23:32:29 28° ENE 23:35:23 10° NNE
Landsat 7 3.8 23:35:43 44° S 23:37:12 78° WSW 23:41:59 10° NNW
Cosmos 1953 Rocket 3.4 23:38:28 54° S 23:39:28 88° E 23:43:55 10° N
Cosmos 1943 3.1 23:39:28 32° SSW 23:42:11 79° ESE 23:47:54 10° NNE
Cosmos 1766 3.2 23:46:04 10° N 23:50:05 73° E 23:50:06 73° E
Terra 1.8 23:51:59 55° S 23:53:00 77° WSW 23:57:47 10° NNW
Spot 2 4.3 23:48:56 10° NNE 23:53:40 87° WNW 23:54:58 50° SSW
